Showing default

QIANFAN-47, 62248

Orbit data source: Space-Track

QIANFAN-47, 62248 is a Chinese payload satellite in LEO that was launched on Thu, 05 Dec 2024 UTC via a CHANG ZHENG 6A launch vehicle from the Taiyaun Space Center, China (TSC). Payload-class satellites include a variety of spacecraft equipped with specific instruments for various scientific and technological missions. These include communications satellites like Starlink; space stations such as the ISS; scientific satellites like the Hubble; Earth observation satellites from companies like Planet Labs, Umbra, and HawkEye 360; GPS; miniature CubeSats for education and research; and military/defense satellites.

Loading next visibility...
Identifier
62248, 2024-232M
Orbit
LEO
Country
Flag of CNCN / PRC
Related business
Manufacturer
SECM
Mission
Operational Commercial Communications
Bus & Motor
QIANFAN, Unknown motor
Mass
267 kg wet, ~267 kg dry
Launch date (UTC)
2024-12-05 (1 year ago)
Launch vehicle
CHANG ZHENG 6A
Launch site
Taiyaun Space Center, China (TSC)
Object type
Payload
Rocket body
Debris
Shape & HBR
Box + 1 Pan, 5.0 m
Radar Cross Section
13.200 m², Large (>1 m²)

Expand to show TLE details & history
Last TLE update: 18 hours ago

TLE from 18 hours ago
0 QIANFAN-47
1 62248U 24232M   26034.54935454  .00000021  00000-0  14058-4 0  9994
2 62248  89.0005  35.8842 0016354  50.2611 309.9978 13.50995764106371
Epoch: 2026-02-03T13:11Z
TLE epoch observation values (Epoch: 2026-02-03T13:11:04.232Z)
Latitude
-0.00004°
Longitude
64.38787°
Altitude
1,063.733 km
Speed
7.324 km/s
True Right ascension
02h 23m 32s
True Declination
0° 00' 00"
Sunlit
Object was in daylight at epoch
Visualization orbit readout
Latitude
Unknown
Longitude
Unknown
Altitude
Unknown
Speed
Unknown
Apparent Right ascension
Unknown
Apparent Declination
Unknown
Sunlit
N/A
Visualization observer readout
Local Sidereal Time
08:59:13
Azimuth
Unknown
Elevation
Unknown
Doppler factor
Unknown
Orbital elements
Apogee altitude
1,077.822 km
Perigee altitude
1,053.475 km
Semi-major axis
7,443.785 km
Eccentricity
0.00164
Inclination
89.0005°
RAAN
35.8842°
Arg. of periapsis
50.2611°
True anomaly
309.85405°
Mean anomaly
309.9978°
Eccentric anomaly
309.92594°
Mean motion
3.3795 °/min
Orbital period
106.52 mins
BSTAR
0.000014058
Loading maneuver chart data...
Computing Atmospheric mass density...
Loading historical data...
Loading historical data...
Loading historical data...
Loading historical data...
Loading historical data...
Loading historical data...
Loading historical data...

Documentation

Showing up to 5 results
|